| time (UTC) | temp F | wind direction | speed MPH | gust MPH | rain 1hr in | rain 24hr in | rain mn in | humidity % | barometer mb |
| 20260507054020 | 34 | 188 | 3.0 | 7.0 | 0.00 | 0.35 | 0.35 | 86 | 1017.5 |
| 20260507053519 | 34 | 188 | 3.0 | 7.0 | 0.00 | 0.35 | 0.35 | 86 | 1017.6 |
| 20260507053024 | 34 | 184 | 3.0 | 6.0 | 0.00 | 0.35 | 0.35 | 87 | 1017.7 |
| 20260507052523 | 33 | 182 | 3.0 | 6.0 | 0.00 | 0.35 | 0.35 | 87 | 1017.8 |
| 20260507052023 | 33 | 179 | 2.0 | 5.0 | 0.00 | 0.35 | 0.35 | 88 | 1017.9 |
| 20260507051521 | 32 | 177 | 2.0 | 3.0 | 0.00 | 0.35 | 0.35 | 87 | 1017.9 |
| 20260507051021 | 32 | 177 | 0.0 | 0.0 | 0.00 | 0.35 | 0.35 | 87 | 1018.0 |
| 20260507050520 | 32 | 177 | 0.0 | 0.0 | 0.00 | 0.35 | 0.35 | 87 | 1018.1 |
| 20260507050034 | 32 | 177 | 0.0 | 0.0 | 0.00 | 0.35 | 0.35 | 86 | 1018.1 |
| 20260507045524 | 32 | 177 | 0.0 | 0.0 | 0.00 | 0.35 | 0.35 | 86 | 1018.2 |
| 20260507045024 | 33 | 177 | 0.0 | 0.0 | 0.00 | 0.35 | 0.35 | 86 | 1018.2 |
| 20260507044533 | 33 | 176 | 0.0 | 0.0 | 0.00 | 0.35 | 0.35 | 87 | 1018.2 |
| 20260507044022 | 33 | 177 | 0.0 | 0.0 | 0.00 | 0.35 | 0.35 | 87 | 1018.2 |
| 20260507043523 | 33 | 177 | 0.0 | 0.0 | 0.00 | 0.35 | 0.35 | 87 | 1018.3 |
| 20260507043003 | 32 | 177 | 0.0 | 0.0 | 0.00 | 0.35 | 0.35 | 86 | 1018.2 |
| 20260507042504 | 33 | 177 | 0.0 | 0.0 | 0.00 | 0.35 | 0.35 | 86 | 1018.3 |
| 20260507042002 | 32 | 177 | 0.0 | 0.0 | 0.00 | 0.35 | 0.35 | 86 | 1018.2 |
| 20260507041520 | 32 | 177 | 0.0 | 0.0 | 0.00 | 0.35 | 0.35 | 86 | 1018.3 |
| 20260507041006 | 32 | 177 | 0.0 | 0.0 | 0.00 | 0.35 | 0.35 | 85 | 1018.2 |
| 20260507040506 | 33 | 177 | 0.0 | 0.0 | 0.00 | 0.35 | 0.35 | 84 | 1018.2 |
| 20260507040006 | 33 | 177 | 0.0 | 0.0 | 0.00 | 0.35 | 0.35 | 84 | 1018.4 |
| 20260507035505 | 33 | 177 | 0.0 | 0.0 | 0.00 | 0.35 | 0.35 | 84 | 1018.5 |
| 20260507035005 | 33 | 177 | 0.0 | 0.0 | 0.00 | 0.35 | 0.35 | 83 | 1018.5 |
| 20260507034515 | 34 | 177 | 0.0 | 0.0 | 0.00 | 0.35 | 0.35 | 83 | 1018.6 |
| 20260507034007 | 34 | 177 | 0.0 | 0.0 | 0.00 | 0.35 | 0.35 | 82 | 1018.5 |
| 20260507033508 | 34 | 176 | 0.0 | 0.0 | 0.00 | 0.35 | 0.35 | 82 | 1018.5 |
| 20260507033008 | 34 | 177 | 0.0 | 0.0 | 0.00 | 0.35 | 0.35 | 81 | 1018.5 |
| 20260507032508 | 35 | 177 | 0.0 | 0.0 | 0.00 | 0.35 | 0.35 | 80 | 1018.4 |
| 20260507032006 | 35 | 177 | 0.0 | 0.0 | 0.00 | 0.35 | 0.35 | 80 | 1018.4 |
| 20260507031529 | 35 | 177 | 0.0 | 0.0 | 0.00 | 0.35 | 0.35 | 79 | 1018.5 |
| 20260507031028 | 36 | 177 | 0.0 | 0.0 | 0.00 | 0.35 | 0.35 | 78 | 1018.5 |
| 20260507030526 | 36 | 177 | 0.0 | 0.0 | 0.00 | 0.35 | 0.35 | 78 | 1018.4 |
| 20260507030012 | 36 | 177 | 0.0 | 0.0 | 0.00 | 0.35 | 0.35 | 78 | 1018.4 |
| 20260507025507 | 36 | 177 | 0.0 | 0.0 | 0.00 | 0.35 | 0.35 | 78 | 1018.3 |
| 20260507025008 | 36 | 177 | 0.0 | 0.0 | 0.00 | 0.35 | 0.35 | 77 | 1018.2 |
| 20260507024507 | 37 | 177 | 0.0 | 2.0 | 0.00 | 0.35 | 0.35 | 76 | 1018.2 |
| 20260507024008 | 37 | 177 | 0.0 | 2.0 | 0.00 | 0.35 | 0.35 | 76 | 1018.2 |
| 20260507023511 | 37 | 177 | 0.0 | 4.0 | 0.00 | 0.35 | 0.35 | 75 | 1018.1 |
| 20260507023009 | 37 | 176 | 0.0 | 4.0 | 0.00 | 0.35 | 0.35 | 75 | 1018.1 |
| 20260507022513 | 37 | 177 | 0.0 | 3.0 | 0.00 | 0.35 | 0.35 | 75 | 1018.1 |
| 20260507022012 | 37 | 177 | 0.0 | 4.0 | 0.00 | 0.35 | 0.35 | 75 | 1018.0 |
| 20260507021507 | 38 | 177 | 0.0 | 4.0 | 0.00 | 0.35 | 0.35 | 74 | 1017.9 |
| 20260507021009 | 38 | 177 | 1.0 | 4.0 | 0.00 | 0.35 | 0.35 | 74 | 1018.0 |
| 20260507020508 | 38 | 177 | 1.0 | 4.0 | 0.00 | 0.35 | 0.35 | 74 | 1018.0 |
| 20260507020010 | 38 | 177 | 1.0 | 3.0 | 0.00 | 0.35 | 0.35 | 74 | 1017.9 |
| 20260507015507 | 38 | 178 | 1.0 | 4.0 | 0.00 | 0.37 | 0.35 | 74 | 1017.9 |
| 20260507015007 | 39 | 178 | 1.0 | 4.0 | 0.00 | 0.37 | 0.35 | 74 | 1017.8 |
| 20260507014516 | 39 | 177 | 2.0 | 0.0 | 0.00 | 0.00 | 0.35 | 73 | 1017.9 |
| 20260507014011 | 39 | 179 | 2.0 | 4.0 | 0.00 | 0.37 | 0.35 | 73 | 1017.9 |
| 20260507013513 | 39 | 181 | 2.0 | 8.0 | 0.00 | 0.37 | 0.35 | 72 | 1017.9 |
| 20260507013019 | 39 | 181 | 3.0 | 8.0 | 0.00 | 0.37 | 0.35 | 71 | 1017.8 |
| 20260507012511 | 40 | 180 | 2.0 | 7.0 | 0.00 | 0.37 | 0.35 | 71 | 1017.9 |
| 20260507012011 | 40 | 186 | 3.0 | 8.0 | 0.00 | 0.37 | 0.35 | 70 | 1018.0 |
| 20260507011517 | 40 | 184 | 3.0 | 8.0 | 0.00 | 0.37 | 0.35 | 69 | 1018.0 |
| 20260507011010 | 40 | 142 | 3.0 | 7.0 | 0.00 | 0.37 | 0.35 | 69 | 1018.0 |
| 20260507010512 | 40 | 179 | 3.0 | 9.0 | 0.00 | 0.37 | 0.35 | 69 | 1018.0 |
| 20260507010013 | 40 | 188 | 4.0 | 9.0 | 0.00 | 0.37 | 0.35 | 69 | 1018.1 |
| 20260507005513 | 41 | 208 | 4.0 | 7.0 | 0.00 | 0.39 | 0.35 | 69 | 1018.2 |
| 20260507005013 | 41 | 176 | 2.0 | 7.0 | 0.00 | 0.39 | 0.35 | 69 | 1018.2 |
| 20260507004529 | 41 | 189 | 3.0 | 7.0 | 0.00 | 0.39 | 0.35 | 69 | 1018.2 |
| 20260507004013 | 41 | 172 | 2.0 | 6.0 | 0.00 | 0.39 | 0.35 | 69 | 1018.2 |
| 20260507003513 | 41 | 126 | 3.0 | 6.0 | 0.00 | 0.39 | 0.35 | 68 | 1018.3 |
| 20260507003016 | 41 | 143 | 2.0 | 7.0 | 0.00 | 0.39 | 0.35 | 69 | 1018.3 |
| 20260507002516 | 41 | 153 | 3.0 | 9.0 | 0.00 | 0.39 | 0.35 | 68 | 1018.4 |
| 20260507002016 | 41 | 193 | 4.0 | 9.0 | 0.00 | 0.39 | 0.35 | 69 | 1018.4 |
| 20260507001515 | 41 | 184 | 4.0 | 8.0 | 0.00 | 0.39 | 0.35 | 68 | 1018.5 |
| 20260507001015 | 41 | 184 | 3.0 | 7.0 | 0.00 | 0.39 | 0.35 | 69 | 1018.6 |
| 20260507000514 | 41 | 168 | 2.0 | 7.0 | 0.00 | 0.39 | 0.35 | 68 | 1018.6 |
| 20260507000022 | 41 | 171 | 3.0 | 6.0 | 0.00 | 0.39 | 0.35 | 68 | 1018.6 |
| 20260506235515 | 41 | 169 | 2.0 | 6.0 | 0.00 | 0.39 | 0.35 | 70 | 1018.7 |
| 20260506235013 | 41 | 193 | 1.0 | 8.0 | 0.00 | 0.39 | 0.35 | 70 | 1018.8 |
| 20260506234525 | 41 | 197 | 4.0 | 8.0 | 0.00 | 0.39 | 0.35 | 70 | 1018.8 |
| 20260506234015 | 40 | 180 | 2.0 | 8.0 | 0.00 | 0.39 | 0.35 | 71 | 1018.8 |
| 20260506233513 | 40 | 181 | 2.0 | 8.0 | 0.00 | 0.39 | 0.35 | 71 | 1018.8 |
| 20260506233014 | 40 | 183 | 3.0 | 8.0 | 0.00 | 0.39 | 0.35 | 71 | 1018.7 |
| 20260506232513 | 40 | 198 | 4.0 | 8.0 | 0.00 | 0.39 | 0.35 | 71 | 1018.8 |
| 20260506232013 | 40 | 188 | 5.0 | 8.0 | 0.00 | 0.39 | 0.35 | 71 | 1018.7 |
| 20260506231529 | 39 | 210 | 4.0 | 8.0 | 0.00 | 0.39 | 0.35 | 72 | 1018.7 |
| 20260506231015 | 39 | 172 | 4.0 | 8.0 | 0.00 | 0.39 | 0.35 | 73 | 1018.8 |
| 20260506230515 | 39 | 181 | 3.0 | 8.0 | 0.00 | 0.39 | 0.35 | 73 | 1018.8 |
| 20260506230015 | 39 | 200 | 4.0 | 7.0 | 0.00 | 0.39 | 0.35 | 75 | 1018.8 |
| 20260506225517 | 39 | 202 | 5.0 | 8.0 | 0.00 | 0.44 | 0.35 | 72 | 1018.9 |
| 20260506225016 | 38 | 177 | 4.0 | 8.0 | 0.00 | 0.44 | 0.35 | 73 | 1019.0 |
| 20260506224514 | 39 | 182 | 3.0 | 7.0 | 0.00 | 0.44 | 0.35 | 74 | 1019.0 |
| 20260506224013 | 39 | 195 | 3.0 | 6.0 | 0.00 | 0.44 | 0.35 | 77 | 1019.0 |
| 20260506223513 | 38 | 207 | 2.0 | 6.0 | 0.00 | 0.44 | 0.35 | 76 | 1019.1 |
| 20260506223024 | 38 | 206 | 3.0 | 7.0 | 0.00 | 0.44 | 0.35 | 75 | 1019.1 |
| 20260506222516 | 38 | 210 | 3.0 | 8.0 | 0.00 | 0.44 | 0.35 | 76 | 1019.2 |
| 20260506222016 | 38 | 210 | 5.0 | 8.0 | 0.00 | 0.44 | 0.35 | 76 | 1019.3 |
| 20260506221516 | 37 | 235 | 3.0 | 6.0 | 0.00 | 0.44 | 0.35 | 73 | 1019.4 |
| 20260506221019 | 38 | 231 | 3.0 | 6.0 | 0.00 | 0.44 | 0.35 | 73 | 1019.4 |
| 20260506220518 | 39 | 241 | 4.0 | 6.0 | 0.00 | 0.44 | 0.35 | 75 | 1019.4 |
| 20260506220019 | 38 | 239 | 1.0 | 6.0 | 0.00 | 0.44 | 0.35 | 78 | 1019.4 |
| 20260506215518 | 37 | 237 | 1.0 | 6.0 | 0.00 | 0.48 | 0.35 | 76 | 1019.6 |
| 20260506215015 | 37 | 232 | 1.0 | 6.0 | 0.00 | 0.48 | 0.35 | 77 | 1019.6 |
| 20260506214518 | 37 | 233 | 2.0 | 6.0 | 0.00 | 0.48 | 0.35 | 77 | 1019.6 |
| 20260506214018 | 37 | 232 | 3.0 | 6.0 | 0.00 | 0.48 | 0.35 | 77 | 1019.9 |
| 20260506213520 | 37 | 234 | 3.0 | 7.0 | 0.00 | 0.48 | 0.35 | 79 | 1019.8 |
| 20260506213018 | 37 | 238 | 3.0 | 7.0 | 0.00 | 0.48 | 0.35 | 78 | 1019.7 |
| 20260506212518 | 37 | 257 | 1.0 | 5.0 | 0.00 | 0.48 | 0.35 | 78 | 1019.8 |
| 20260506212017 | 37 | 262 | 3.0 | 5.0 | 0.00 | 0.48 | 0.35 | 77 | 1019.8 |
| 20260506211531 | 37 | 272 | 2.0 | 6.0 | 0.00 | 0.48 | 0.35 | 75 | 1019.9 |
| 20260506211021 | 37 | 288 | 2.0 | 6.0 | 0.00 | 0.48 | 0.35 | 76 | 1019.9 |
| 20260506210521 | 37 | 302 | 0.0 | 4.0 | 0.00 | 0.48 | 0.35 | 75 | 1019.9 |
| 20260506210025 | 37 | 302 | 0.0 | 4.0 | 0.00 | 0.48 | 0.35 | 77 | 1020.0 |
| 20260506205522 | 36 | 303 | 0.0 | 6.0 | 0.00 | 0.53 | 0.35 | 76 | 1020.0 |
| 20260506205020 | 36 | 303 | 1.0 | 6.0 | 0.00 | 0.53 | 0.35 | 77 | 1020.2 |
| 20260506204520 | 36 | 288 | 2.0 | 5.0 | 0.00 | 0.53 | 0.35 | 78 | 1020.3 |
| 20260506204020 | 36 | 281 | 1.0 | 5.0 | 0.00 | 0.53 | 0.35 | 77 | 1020.4 |
| 20260506203521 | 36 | 283 | 0.0 | 4.0 | 0.00 | 0.53 | 0.35 | 78 | 1020.4 |
| 20260506203028 | 36 | 284 | 3.0 | 4.0 | 0.00 | 0.53 | 0.35 | 79 | 1020.4 |
| 20260506202524 | 37 | 285 | 0.0 | 0.0 | 0.00 | 0.53 | 0.35 | 78 | 1020.5 |
| 20260506202024 | 37 | 285 | 0.0 | 4.0 | 0.01 | 0.53 | 0.35 | 79 | 1020.5 |
| 20260506201531 | 36 | 285 | 1.0 | 4.0 | 0.01 | 0.53 | 0.35 | 79 | 1020.5 |
| 20260506201021 | 37 | 285 | 2.0 | 4.0 | 0.01 | 0.53 | 0.35 | 77 | 1020.5 |
| 20260506200520 | 39 | 285 | 0.0 | 3.0 | 0.02 | 0.53 | 0.35 | 79 | 1020.5 |
| 20260506200024 | 38 | 285 | 1.0 | 3.0 | 0.02 | 0.53 | 0.35 | 77 | 1020.5 |
| 20260506195524 | 38 | 285 | 0.0 | 3.0 | 0.02 | 0.53 | 0.35 | 80 | 1020.6 |
| 20260506195023 | 38 | 284 | 1.0 | 3.0 | 0.03 | 0.53 | 0.35 | 81 | 1020.6 |
| 20260506194528 | 38 | 284 | 0.0 | 2.0 | 0.03 | 0.53 | 0.35 | 83 | 1020.6 |
| 20260506194026 | 37 | 284 | 0.0 | 4.0 | 0.04 | 0.53 | 0.35 | 81 | 1020.7 |
| 20260506193522 | 37 | 284 | 0.0 | 4.0 | 0.04 | 0.53 | 0.35 | 84 | 1020.8 |
| 20260506193024 | 37 | 304 | 2.0 | 4.0 | 0.05 | 0.53 | 0.35 | 83 | 1020.8 |
| 20260506192523 | 37 | 304 | 1.0 | 5.0 | 0.05 | 0.53 | 0.35 | 88 | 1020.8 |
| 20260506192022 | 36 | 304 | 2.0 | 5.0 | 0.05 | 0.52 | 0.34 | 87 | 1020.9 |
| 20260506191526 | 36 | 307 | 1.0 | 4.0 | 0.06 | 0.52 | 0.34 | 89 | 1021.0 |
| 20260506191029 | 36 | 307 | 1.0 | 4.0 | 0.07 | 0.52 | 0.34 | 89 | 1021.1 |
| 20260506190529 | 35 | 306 | 1.0 | 3.0 | 0.07 | 0.51 | 0.33 | 89 | 1021.1 |
| 20260506190024 | 35 | 306 | 1.0 | 4.0 | 0.08 | 0.51 | 0.33 | 90 | 1021.1 |
| 20260506185526 | 35 | 305 | 1.0 | 4.0 | 0.10 | 0.52 | 0.33 | 91 | 1021.2 |
| 20260506185023 | 34 | 304 | 1.0 | 5.0 | 0.10 | 0.51 | 0.32 | 92 | 1021.2 |
| 20260506184508 | 34 | 304 | 2.0 | 5.0 | 0.11 | 0.51 | 0.32 | 91 | 1021.2 |
| 20260506184011 | 34 | 304 | 2.0 | 5.0 | 0.11 | 0.50 | 0.31 | 91 | 1021.3 |
| 20260506183507 | 34 | 304 | 2.0 | 6.0 | 0.11 | 0.50 | 0.31 | 92 | 1021.3 |
| 20260506183007 | 33 | 293 | 3.0 | 6.0 | 0.11 | 0.49 | 0.30 | 91 | 1021.4 |
| 20260506182507 | 34 | 295 | 3.0 | 6.0 | 0.11 | 0.48 | 0.28 | 91 | 1021.4 |
| 20260506182006 | 34 | 297 | 4.0 | 6.0 | 0.12 | 0.48 | 0.28 | 90 | 1021.5 |
| 20260506181509 | 35 | 344 | 2.0 | 5.0 | 0.12 | 0.47 | 0.28 | 92 | 1021.4 |
| 20260506181007 | 34 | 343 | 2.0 | 6.0 | 0.12 | 0.46 | 0.27 | 92 | 1021.4 |
| 20260506180507 | 34 | 347 | 3.0 | 6.0 | 0.10 | 0.44 | 0.25 | 91 | 1021.5 |
| 20260506180013 | 34 | 359 | 0.0 | 5.0 | 0.10 | 0.43 | 0.24 | 92 | 1021.5 |
| 20260506175510 | 34 | 359 | 2.0 | 5.0 | 0.09 | 0.44 | 0.23 | 92 | 1021.4 |
| 20260506175009 | 34 | 359 | 2.0 | 4.0 | 0.09 | 0.43 | 0.22 | 93 | 1021.3 |
| 20260506174511 | 34 | 14 | 0.0 | 5.0 | 0.08 | 0.42 | 0.21 | 94 | 1021.3 |
| 20260506174010 | 34 | 14 | 2.0 | 5.0 | 0.08 | 0.41 | 0.20 | 94 | 1021.3 |
| 20260506173508 | 34 | 14 | 1.0 | 3.0 | 0.08 | 0.40 | 0.19 | 95 | 1021.4 |
| 20260506173010 | 33 | 4 | 0.0 | 4.0 | 0.07 | 0.39 | 0.18 | 95 | 1021.3 |
| 20260506172510 | 33 | 4 | 1.0 | 5.0 | 0.08 | 0.39 | 0.18 | 95 | 1021.3 |
| 20260506172007 | 32 | 4 | 2.0 | 5.0 | 0.07 | 0.38 | 0.17 | 95 | 1021.3 |
| 20260506171515 | 32 | 5 | 2.0 | 5.0 | 0.07 | 0.37 | 0.16 | 95 | 1021.3 |
| 20260506171014 | 32 | 5 | 3.0 | 5.0 | 0.06 | 0.36 | 0.15 | 95 | 1021.3 |
| 20260506170515 | 32 | 5 | 1.0 | 5.0 | 0.07 | 0.36 | 0.15 | 95 | 1021.3 |
| 20260506170012 | 32 | 5 | 3.0 | 5.0 | 0.06 | 0.35 | 0.14 | 95 | 1021.3 |
| 20260506165513 | 32 | 4 | 2.0 | 5.0 | 0.06 | 0.36 | 0.14 | 95 | 1021.1 |
| 20260506165011 | 32 | 4 | 2.0 | 6.0 | 0.06 | 0.35 | 0.13 | 95 | 1021.1 |
| 20260506164514 | 32 | 4 | 2.0 | 6.0 | 0.06 | 0.35 | 0.13 | 95 | 1021.0 |
| 20260506164018 | 32 | 4 | 2.0 | 7.0 | 0.06 | 0.34 | 0.12 | 95 | 1020.9 |
| 20260506163512 | 32 | 6 | 2.0 | 7.0 | 0.05 | 0.33 | 0.11 | 95 | 1020.7 |
| 20260506163014 | 31 | 6 | 3.0 | 9.0 | 0.06 | 0.33 | 0.11 | 95 | 1020.6 |
| 20260506162512 | 31 | 6 | 3.0 | 9.0 | 0.05 | 0.32 | 0.10 | 95 | 1020.5 |
| 20260506162016 | 31 | 12 | 2.0 | 8.0 | 0.05 | 0.32 | 0.10 | 95 | 1020.6 |
| 20260506161514 | 31 | 11 | 4.0 | 8.0 | 0.05 | 0.31 | 0.09 | 95 | 1020.6 |
| 20260506161013 | 31 | 10 | 4.0 | 11.0 | 0.05 | 0.31 | 0.09 | 95 | 1020.5 |
| 20260506160512 | 31 | 11 | 5.0 | 11.0 | 0.05 | 0.30 | 0.08 | 95 | 1020.4 |
| 20260506160017 | 31 | 1 | 3.0 | 10.0 | 0.05 | 0.30 | 0.08 | 95 | 1020.3 |
| 20260506155520 | 32 | 358 | 3.0 | 10.0 | 0.05 | 0.31 | 0.08 | 95 | 1020.4 |
| 20260506155016 | 32 | 348 | 3.0 | 8.0 | 0.04 | 0.30 | 0.07 | 95 | 1020.4 |
| 20260506154517 | 32 | 347 | 2.0 | 8.0 | 0.05 | 0.30 | 0.07 | 95 | 1020.3 |
| 20260506154017 | 32 | 349 | 1.0 | 6.0 | 0.04 | 0.28 | 0.06 | 95 | 1020.3 |
| 20260506153515 | 32 | 348 | 3.0 | 6.0 | 0.04 | 0.28 | 0.06 | 95 | 1020.1 |
| 20260506153020 | 32 | 349 | 3.0 | 6.0 | 0.03 | 0.28 | 0.05 | 95 | 1020.0 |
| 20260506152518 | 32 | 352 | 2.0 | 7.0 | 0.03 | 0.28 | 0.05 | 96 | 1020.1 |
| 20260506152021 | 32 | 352 | 3.0 | 7.0 | 0.03 | 0.27 | 0.04 | 96 | 1020.1 |
| 20260506151519 | 32 | 352 | 3.0 | 8.0 | 0.03 | 0.27 | 0.04 | 96 | 1019.9 |
| 20260506151017 | 32 | 353 | 3.0 | 8.0 | 0.03 | 0.27 | 0.04 | 96 | 1019.8 |
| 20260506150517 | 32 | 359 | 2.0 | 7.0 | 0.02 | 0.26 | 0.03 | 96 | 1019.7 |
| 20260506150018 | 32 | 359 | 3.0 | 7.0 | 0.02 | 0.26 | 0.03 | 96 | 1019.7 |
| 20260506145518 | 32 | 359 | 2.0 | 6.0 | 0.02 | 0.28 | 0.03 | 95 | 1019.7 |
| 20260506145017 | 32 | 359 | 3.0 | 6.0 | 0.02 | 0.28 | 0.03 | 95 | 1019.7 |
| 20260506144521 | 32 | 359 | 3.0 | 6.0 | 0.01 | 0.28 | 0.02 | 95 | 1019.7 |
| 20260506144022 | 32 | 359 | 3.0 | 6.0 | 0.01 | 0.28 | 0.02 | 95 | 1019.6 |
| 20260506143520 | 32 | 359 | 3.0 | 6.0 | 0.01 | 0.28 | 0.02 | 96 | 1019.6 |
| 20260506143028 | 32 | 359 | 3.0 | 6.0 | 0.01 | 0.28 | 0.02 | 95 | 1019.5 |
| 20260506142520 | 32 | 359 | 3.0 | 5.0 | 0.02 | 0.28 | 0.02 | 96 | 1019.5 |
| 20260506142024 | 32 | 359 | 1.0 | 3.0 | 0.01 | 0.27 | 0.01 | 96 | 1019.6 |
| 20260506141518 | 32 | 360 | 1.0 | 3.0 | 0.01 | 0.27 | 0.01 | 96 | 1019.6 |
| 20260506141021 | 32 | 360 | 0.0 | 3.0 | 0.01 | 0.27 | 0.01 | 96 | 1019.6 |
| 20260506140518 | 32 | 360 | 1.0 | 3.0 | 0.01 | 0.27 | 0.01 | 96 | 1019.6 |
| 20260506140023 | 32 | 360 | 0.0 | 1.0 | 0.01 | 0.27 | 0.01 | 96 | 1019.5 |
| 20260506135523 | 32 | 360 | 0.0 | 3.0 | 0.01 | 0.28 | 0.01 | 96 | 1019.6 |
| 20260506135021 | 32 | 360 | 0.0 | 3.0 | 0.01 | 0.28 | 0.01 | 96 | 1019.5 |
| 20260506134523 | 32 | 360 | 1.0 | 4.0 | 0.01 | 0.28 | 0.01 | 96 | 1019.4 |
| 20260506134021 | 32 | 1 | 0.0 | 4.0 | 0.01 | 0.28 | 0.01 | 96 | 1019.3 |
| 20260506133521 | 32 | 1 | 1.0 | 3.0 | 0.01 | 0.28 | 0.01 | 96 | 1019.3 |
| 20260506133028 | 32 | 1 | 0.0 | 1.0 | 0.01 | 0.28 | 0.01 | 95 | 1019.2 |
| 20260506132526 | 32 | 1 | 0.0 | 1.0 | 0.00 | 0.28 | 0.00 | 95 | 1019.2 |
| 20260506132027 | 32 | 20 | 0.0 | 0.0 | 0.00 | 0.28 | 0.00 | 95 | 1019.0 |
| 20260506131528 | 32 | 20 | 0.0 | 0.0 | 0.00 | 0.28 | 0.00 | 95 | 1018.9 |
| 20260506131025 | 32 | 20 | 0.0 | 0.0 | 0.00 | 0.28 | 0.00 | 95 | 1018.8 |
| 20260506130524 | 32 | 20 | 0.0 | 0.0 | 0.00 | 0.28 | 0.00 | 96 | 1018.7 |
| 20260506130010 | 32 | 20 | 0.0 | 0.0 | 0.00 | 0.28 | 0.00 | 96 | 1018.6 |
| 20260506125503 | 32 | 20 | 0.0 | 0.0 | 0.00 | 0.32 | 0.00 | 96 | 1018.5 |
| 20260506125005 | 32 | 20 | 0.0 | 0.0 | 0.00 | 0.32 | 0.00 | 96 | 1018.4 |
| 20260506124506 | 32 | 20 | 0.0 | 0.0 | 0.00 | 0.32 | 0.00 | 96 | 1018.2 |
| 20260506124006 | 32 | 20 | 0.0 | 0.0 | 0.00 | 0.32 | 0.00 | 96 | 1018.2 |
| 20260506123508 | 32 | 20 | 0.0 | 0.0 | 0.00 | 0.32 | 0.00 | 96 | 1018.4 |
| 20260506123006 | 32 | 20 | 0.0 | 0.0 | 0.00 | 0.32 | 0.00 | 96 | 1018.4 |
| 20260506122506 | 32 | 20 | 0.0 | 0.0 | 0.00 | 0.32 | 0.00 | 96 | 1018.5 |
| 20260506122005 | 31 | 20 | 0.0 | 0.0 | 0.00 | 0.32 | 0.00 | 96 | 1018.5 |
| 20260506121510 | 31 | 20 | 0.0 | 0.0 | 0.00 | 0.32 | 0.00 | 95 | 1018.3 |
| 20260506121008 | 31 | 20 | 0.0 | 0.0 | 0.00 | 0.32 | 0.00 | 95 | 1018.1 |
| 20260506120508 | 31 | 20 | 0.0 | 0.0 | 0.00 | 0.32 | 0.00 | 95 | 1018.2 |
| 20260506120008 | 31 | 20 | 0.0 | 0.0 | 0.00 | 0.32 | 0.00 | 95 | 1018.2 |
| 20260506115508 | 31 | 20 | 0.0 | 0.0 | 0.00 | 0.35 | 0.00 | 96 | 1018.2 |
| 20260506115006 | 31 | 20 | 0.0 | 0.0 | 0.00 | 0.35 | 0.00 | 96 | 1018.2 |
| 20260506114508 | 31 | 21 | 0.0 | 0.0 | 0.00 | 0.35 | 0.00 | 96 | 1018.2 |
| 20260506114010 | 31 | 22 | 0.0 | 0.0 | 0.00 | 0.35 | 0.00 | 95 | 1018.0 |
| 20260506113507 | 31 | 22 | 0.0 | 0.0 | 0.00 | 0.35 | 0.00 | 95 | 1017.9 |
| 20260506113021 | 31 | 22 | 0.0 | 0.0 | 0.00 | 0.35 | 0.00 | 95 | 1017.9 |
| 20260506112512 | 31 | 22 | 0.0 | 0.0 | 0.00 | 0.35 | 0.00 | 96 | 1017.9 |
| 20260506112013 | 31 | 22 | 0.0 | 0.0 | 0.00 | 0.35 | 0.00 | 96 | 1017.7 |
| 20260506111510 | 31 | 22 | 0.0 | 0.0 | 0.00 | 0.35 | 0.00 | 96 | 1017.7 |
| 20260506111013 | 32 | 22 | 0.0 | 0.0 | 0.00 | 0.35 | 0.00 | 96 | 1017.7 |
| 20260506110509 | 32 | 22 | 0.0 | 0.0 | 0.00 | 0.35 | 0.00 | 96 | 1017.7 |
| 20260506110013 | 32 | 22 | 0.0 | 0.0 | 0.00 | 0.35 | 0.00 | 96 | 1017.6 |
| 20260506105513 | 32 | 22 | 0.0 | 0.0 | 0.00 | 0.41 | 0.00 | 96 | 1017.5 |
| 20260506105013 | 32 | 22 | 0.0 | 0.0 | 0.00 | 0.41 | 0.00 | 96 | 1017.4 |
| 20260506104511 | 32 | 22 | 0.0 | 0.0 | 0.00 | 0.41 | 0.00 | 96 | 1017.5 |
| 20260506104011 | 32 | 22 | 0.0 | 0.0 | 0.00 | 0.41 | 0.00 | 96 | 1017.5 |
| 20260506103511 | 32 | 22 | 0.0 | 0.0 | 0.00 | 0.41 | 0.00 | 96 | 1017.5 |
| 20260506103011 | 32 | 22 | 0.0 | 0.0 | 0.00 | 0.41 | 0.00 | 96 | 1017.4 |
| 20260506102510 | 32 | 22 | 0.0 | 0.0 | 0.00 | 0.41 | 0.00 | 96 | 1017.5 |
| 20260506102010 | 32 | 22 | 0.0 | 0.0 | 0.00 | 0.41 | 0.00 | 96 | 1017.5 |
| 20260506101515 | 32 | 22 | 0.0 | 0.0 | 0.00 | 0.41 | 0.00 | 96 | 1017.6 |
| 20260506101014 | 32 | 22 | 0.0 | 0.0 | 0.00 | 0.41 | 0.00 | 96 | 1017.6 |
| 20260506100514 | 32 | 22 | 0.0 | 0.0 | 0.00 | 0.41 | 0.00 | 96 | 1017.7 |
| 20260506100013 | 31 | 22 | 0.0 | 0.0 | 0.00 | 0.41 | 0.00 | 96 | 1017.7 |
| 20260506095513 | 31 | 22 | 0.0 | 0.0 | 0.00 | 0.43 | 0.00 | 96 | 1017.7 |
| 20260506095015 | 31 | 22 | 0.0 | 0.0 | 0.00 | 0.43 | 0.00 | 95 | 1017.7 |
| 20260506094513 | 31 | 22 | 0.0 | 0.0 | 0.00 | 0.43 | 0.00 | 95 | 1017.6 |
| 20260506094011 | 31 | 22 | 0.0 | 0.0 | 0.00 | 0.43 | 0.00 | 95 | 1017.5 |
| 20260506093511 | 32 | 22 | 0.0 | 0.0 | 0.00 | 0.43 | 0.00 | 95 | 1017.5 |
| 20260506093017 | 32 | 22 | 0.0 | 0.0 | 0.00 | 0.43 | 0.00 | 95 | 1017.5 |
| 20260506092515 | 32 | 22 | 0.0 | 0.0 | 0.00 | 0.43 | 0.00 | 95 | 1017.2 |
| 20260506092015 | 32 | 22 | 0.0 | 0.0 | 0.00 | 0.43 | 0.00 | 95 | 1017.4 |
| 20260506091517 | 32 | 22 | 0.0 | 0.0 | 0.00 | 0.43 | 0.00 | 95 | 1017.4 |
| 20260506091013 | 32 | 22 | 0.0 | 0.0 | 0.00 | 0.43 | 0.00 | 95 | 1017.3 |
| 20260506090513 | 32 | 22 | 0.0 | 0.0 | 0.00 | 0.43 | 0.00 | 95 | 1017.2 |
| 20260506090019 | 32 | 22 | 0.0 | 0.0 | 0.00 | 0.43 | 0.00 | 95 | 1017.3 |
| 20260506085519 | 32 | 22 | 0.0 | 0.0 | 0.00 | 0.49 | 0.00 | 95 | 1017.3 |
| 20260506085015 | 32 | 22 | 0.0 | 0.0 | 0.00 | 0.49 | 0.00 | 95 | 1017.3 |
| 20260506084517 | 32 | 22 | 0.0 | 0.0 | 0.00 | 0.49 | 0.00 | 95 | 1017.3 |
| 20260506084015 | 32 | 22 | 0.0 | 0.0 | 0.00 | 0.49 | 0.00 | 95 | 1017.3 |
| 20260506083516 | 32 | 22 | 0.0 | 1.0 | 0.00 | 0.49 | 0.00 | 95 | 1017.3 |
| 20260506083015 | 32 | 22 | 0.0 | 1.0 | 0.00 | 0.49 | 0.00 | 95 | 1017.4 |
| 20260506082513 | 32 | 22 | 0.0 | 2.0 | 0.00 | 0.49 | 0.00 | 95 | 1017.2 |
| 20260506082013 | 32 | 22 | 1.0 | 2.0 | 0.00 | 0.49 | 0.00 | 95 | 1017.2 |
| 20260506081516 | 32 | 19 | 0.0 | 2.0 | 0.00 | 0.49 | 0.00 | 95 | 1017.3 |
| 20260506081016 | 32 | 18 | 0.0 | 2.0 | 0.00 | 0.49 | 0.00 | 95 | 1017.5 |
| 20260506080516 | 32 | 4 | 0.0 | 2.0 | 0.00 | 0.49 | 0.00 | 95 | 1017.7 |
| 20260506073519 | 32 | 359 | 0.0 | 2.0 | 0.00 | 0.49 | 0.00 | 95 | 1017.2 |
| 20260506073021 | 32 | 359 | 0.0 | 2.0 | 0.00 | 0.49 | 0.00 | 95 | 1017.4 |
| 20260506072519 | 32 | 359 | 0.0 | 2.0 | 0.00 | 0.49 | 0.00 | 95 | 1017.3 |
| 20260506072018 | 32 | 359 | 0.0 | 2.0 | 0.00 | 0.49 | 0.00 | 95 | 1017.4 |
| 20260506071518 | 32 | 359 | 0.0 | 2.0 | 0.00 | 0.49 | 0.00 | 95 | 1017.5 |
| 20260506071019 | 32 | 359 | 0.0 | 2.0 | 0.00 | 0.49 | 0.00 | 95 | 1017.4 |
| 20260506070517 | 32 | 359 | 0.0 | 2.0 | 0.00 | 0.49 | 0.00 | 95 | 1017.5 |
| 20260506062516 | 32 | 359 | 0.0 | 3.0 | 0.00 | 0.49 | 0.00 | 95 | 1017.1 |
| 20260506062016 | 32 | 359 | 0.0 | 3.0 | 0.00 | 0.49 | 0.00 | 95 | 1017.0 |
| 20260506061541 | 32 | 358 | 1.0 | 3.0 | 0.00 | 0.49 | 0.00 | 95 | 1017.0 |
| 20260506061020 | 32 | 356 | 0.0 | 3.0 | 0.00 | 0.49 | 0.00 | 95 | 1017.0 |
| 20260506060523 | 32 | 355 | 1.0 | 2.0 | 0.00 | 0.49 | 0.00 | 95 | 1017.1 |